Stations météo

réclame
Mon MeteoGroup
Lulea/Kallax, Suède (2186): Température de l'air & dewpoint: 15.02.2018 11:00:00 - 21.02.2018 11:00:00 (CET)Lulea/Kallax, Suède (2186): Vitesse du vent & gusts: 15.02.2018 11:00:00 - 21.02.2018 11:00:00 (CET)Lulea/Kallax, Suède (2186): Direction du vent: 15.02.2018 11:00:00 - 21.02.2018 11:00:00 (CET)Lulea/Kallax, Suède (2186): reduced air pressure: 15.02.2018 11:00:00 - 21.02.2018 11:00:00 (CET)Lulea/Kallax, Suède (2186): visibility: 15.02.2018 11:00:00 - 21.02.2018 11:00:00 (CET)Lulea/Kallax, Suède (2186): Quantités de précipitations: 15.02.2018 11:00:00 - 21.02.2018 11:00:00 (CET)
Date & Time tt [°C] td [°C] ff [km/h] ff [knt] fx [km/h] fx [knt] dd ppp [hPa] vv [km] rr [mm]
21.02.2018 11:00:00 -18,1 -20,4 9 5 14 8 NW 1029,1 10 0,0
21.02.2018 10:00:00 -19,8 -22,1 4 2 14 8 - 1029,1 10 0,0
21.02.2018 09:00:00 -21,7 -24,1 15 8 14 8 NW 1029,1 10 0,0
21.02.2018 08:00:00 -22,0 -24,4 5 3 14 8 N 1028,9 10 0,0
21.02.2018 07:00:00 -21,4 -23,5 4 2 14 8 NNW 1028,9 10 0,0
21.02.2018 06:00:00 -21,0 -23,3 9 5 14 8 NW 1029,1 10 0,0
21.02.2018 05:00:00 -19,7 -21,8 4 2 11 6 N 1029,3 10 0,0
21.02.2018 04:00:00 -19,1 -21,1 9 5 14 8 NNW 1029,7 10 0,0
21.02.2018 03:00:00 -20,7 -22,8 9 5 14 8 NW 1029,9 10 0,0
21.02.2018 02:00:00 -19,7 -21,8 11 6 14 8 NNW 1029,9 10 0,0
21.02.2018 01:00:00 -20,3 -22,4 11 6 14 8 NW 1030,2 10 0,0
21.02.2018 00:00:00 -18,7 -20,9 5 3 7 4 NNW 1030,5 10 0,0
20.02.2018 23:00:00 -21,5 -23,6 5 3 7 4 NNW 1030,6 10 0,0
20.02.2018 22:00:00 -20,3 -22,2 8 4 7 4 NW 1030,6 10 0,0
20.02.2018 21:00:00 -19,8 -21,8 5 3 7 4 NW 1030,6 10 0,0
20.02.2018 20:00:00 -18,8 -20,8 5 3 11 6 NNW 1030,8 10 0,0
20.02.2018 19:00:00 -18,2 -20,2 8 4 14 8 NNW 1031,0 10 0,0
20.02.2018 18:00:00 -17,3 -19,1 9 5 14 8 NNW 1030,9 10 0,0
20.02.2018 17:00:00 -16,5 -18,6 9 5 14 8 NW 1031,1 10 0,0
20.02.2018 16:00:00 -15,6 -17,5 13 7 14 8 NW 1031,3 10 0,0
20.02.2018 15:00:00 -15,1 -17,1 11 6 18 10 NW 1031,4 10 0,0
20.02.2018 14:00:00 -15,3 -17,1 13 7 14 8 WNW 1031,4 10 0,0
20.02.2018 13:00:00 -15,3 -17,1 9 5 14 8 NW 1031,7 10 0,0
20.02.2018 12:00:00 -15,9 -17,7 8 4 11 6 NW 1031,8 10 0,0
20.02.2018 11:00:00 -16,8 -18,7 5 3 11 6 NNW 1032,0 10 0,0
20.02.2018 10:00:00 -17,1 -19,0 8 4 11 6 NNW 1031,9 10 0,0
20.02.2018 09:00:00 -17,8 -19,8 5 3 11 6 NNW 1031,9 10 0,0
20.02.2018 08:00:00 -18,0 -19,9 4 2 7 4 N 1031,8 10 0,0
20.02.2018 07:00:00 -18,0 -19,8 4 2 7 4 N 1031,7 10 0,0
20.02.2018 06:00:00 -17,8 -19,7 4 2 7 4 NNW 1031,6 10 0,0
20.02.2018 05:00:00 -17,9 -19,8 5 3 11 6 N 1031,7 10 0,0
20.02.2018 04:00:00 -18,0 -19,9 5 3 11 6 NNW 1032,1 10 0,0
20.02.2018 03:00:00 -20,0 -22,0 9 5 11 6 NNW 1032,3 10 0,0
20.02.2018 02:00:00 -20,1 -22,1 4 2 7 4 NNW 1032,5 10 0,0
20.02.2018 01:00:00 -20,5 -22,8 5 3 7 4 NNW 1032,6 10 0,0
20.02.2018 00:00:00 -19,5 -21,4 5 3 7 4 N 1032,8 10 0,0
19.02.2018 23:00:00 -20,6 -22,5 2 1 7 4 N 1032,7 10 0,0
19.02.2018 22:00:00 -19,1 -21,0 5 3 7 4 NNW 1032,6 10 0,0
19.02.2018 21:00:00 -18,3 -20,1 5 3 7 4 NNW 1032,5 10 0,0
19.02.2018 20:00:00 -17,5 -19,1 8 4 14 8 NNW 1032,7 10 0,0
19.02.2018 19:00:00 -14,2 -15,6 5 3 11 6 NNW 1032,5 10 0,0
19.02.2018 18:00:00 -16,5 -17,8 5 3 11 6 N 1032,6 10 0,0
19.02.2018 17:00:00 -12,9 -14,1 4 2 7 4 N 1032,4 10 0,0
19.02.2018 16:00:00 -12,9 -14,5 5 3 11 6 N 1032,4 10 0,0
19.02.2018 15:00:00 -12,4 -14,5 8 4 18 10 N 1032,1 10 0,0
19.02.2018 14:00:00 -10,7 -13,0 11 6 14 8 N 1032,0 82 0,0
19.02.2018 13:00:00 -9,7 -12,7 11 6 18 10 NNW 1032,0 10 0,0
19.02.2018 12:00:00 -10,4 -13,0 9 5 14 8 NNW 1031,9 10 0,0
19.02.2018 11:00:00 -10,5 -12,4 8 4 14 8 N 1031,5 10 0,0
19.02.2018 10:00:00 -10,7 -12,4 8 4 11 6 N 1031,1 10 0,0
19.02.2018 09:00:00 -11,9 -13,5 5 3 11 6 N 1030,7 10 0,0
19.02.2018 08:00:00 -11,8 -13,2 5 3 11 6 N 1030,2 10 0,1
19.02.2018 07:00:00 -11,5 -12,9 5 3 11 6 N 1029,7 7 0,2
19.02.2018 06:00:00 -11,6 -12,9 5 3 7 4 NNW 1029,6 7 0,1
19.02.2018 05:00:00 -12,0 -13,3 4 2 7 4 N 1029,0 5 0,0
19.02.2018 04:00:00 -12,1 -13,5 5 3 7 4 NNW 1028,8 8 0,0
19.02.2018 03:00:00 -12,2 -13,6 4 2 7 4 N 1028,6 9 0,0
19.02.2018 02:00:00 -12,9 -14,3 5 3 7 4 N 1028,5 9 0,0
19.02.2018 01:00:00 -12,7 -14,1 0 0 4 2 N 1028,1 5 0,2
19.02.2018 00:00:00 -11,8 -13,1 2 1 4 2 NNE 1027,9 3,7 0,2
18.02.2018 23:00:00 -12,3 -13,7 0 0 4 2 N 1027,8 2,2 0,3
18.02.2018 22:00:00 -12,5 -13,9 2 1 4 2 ENE 1027,6 3,6 0,2
18.02.2018 21:00:00 -12,6 -14,0 2 1 4 2 NW 1027,4 4,0 0,1
18.02.2018 20:00:00 -13,2 -14,6 0 0 4 2 N 1027,2 10 0,0
18.02.2018 19:00:00 -15,1 -16,6 2 1 4 2 NW 1026,9 10 0,0
18.02.2018 18:00:00 -15,4 -16,9 0 0 4 2 N 1026,7 10 0,0
18.02.2018 17:00:00 -14,3 -15,4 0 0 4 2 N 1026,5 10 0,0
18.02.2018 16:00:00 -12,6 -13,9 2 1 11 6 SE 1026,5 10 0,0
18.02.2018 15:00:00 -11,8 -13,5 9 5 14 8 SE 1026,2 10 0,0
18.02.2018 14:00:00 -10,3 -12,6 9 5 14 8 SSE 1026,3 10 0,0
18.02.2018 13:00:00 -9,5 -11,8 9 5 14 8 SSE 1026,4 10 0,0
18.02.2018 12:00:00 -9,1 -11,8 9 5 11 6 SSE 1026,5 10 0,0
18.02.2018 11:00:00 -9,4 -11,7 8 4 7 4 SSE 1026,3 8 0,0
18.02.2018 10:00:00 -9,6 -11,8 4 2 7 4 SE 1026,3 10 0,0
18.02.2018 09:00:00 -10,3 -11,9 0 0 4 2 N 1026,1 10 0,0
18.02.2018 08:00:00 -10,1 -11,8 2 1 4 2 - 1026,2 10 0,0
18.02.2018 07:00:00 -10,0 -11,7 4 2 4 2 SW 1026,2 10 0,0
18.02.2018 06:00:00 -9,8 -11,6 2 1 4 2 SW 1026,2 10 0,0
18.02.2018 05:00:00 -9,6 -11,6 5 3 14 8 S 1026,2 10 0,0
18.02.2018 04:00:00 -9,5 -11,4 9 5 14 8 SE 1026,1 10 0,0
18.02.2018 03:00:00 -9,4 -11,2 11 6 18 10 SE 1026,3 10 0,0
18.02.2018 02:00:00 -8,9 -10,4 11 6 14 8 SE 1026,0 10 0,0
18.02.2018 01:00:00 -8,8 -10,3 9 5 14 8 SE 1026,0 10 0,0
18.02.2018 00:00:00 -8,7 -10,2 9 5 11 6 SE 1026,1 10 0,0
17.02.2018 23:00:00 -8,6 -10,1 8 4 14 8 SE 1026,1 10 0,0
17.02.2018 22:00:00 -8,4 -9,7 11 6 14 8 ESE 1025,8 10 0,0
17.02.2018 21:00:00 -8,1 -9,6 11 6 14 8 ESE 1025,6 9 0,0
17.02.2018 20:00:00 -7,8 -9,3 11 6 14 8 ESE 1025,6 9 0,0
17.02.2018 19:00:00 -7,5 -9,0 9 5 14 8 ESE 1025,2 10 0,0
17.02.2018 18:00:00 -7,1 -8,5 8 4 14 8 SE 1025,1 9 0,0
17.02.2018 17:00:00 -6,9 -8,3 9 5 14 8 SE 1024,9 8 0,0
17.02.2018 16:00:00 -6,4 -7,9 9 5 11 6 SE 1024,7 10 0,0
17.02.2018 15:00:00 -5,8 -7,5 5 3 11 6 SSE 1024,6 10 0,0
17.02.2018 14:00:00 -5,7 -7,7 9 5 11 6 SSE 1024,5 10 0,0
17.02.2018 13:00:00 -5,6 -7,6 9 5 11 6 SE 1024,5 10 0,0
17.02.2018 12:00:00 -5,8 -7,6 8 4 11 6 SSE 1024,5 10 0,0
17.02.2018 11:00:00 -6,2 -7,7 8 4 11 6 SE 1024,3 10 0,0
17.02.2018 10:00:00 -6,2 -7,7 5 3 7 4 SE 1024,2 10 0,0
17.02.2018 09:00:00 -6,6 -8,3 2 1 4 2 - 1024,1 10 0,0
17.02.2018 08:00:00 -7,4 -8,5 4 2 4 2 SE 1024,0 10 0,0
17.02.2018 07:00:00 -7,2 -8,3 0 0 4 2 N 1024,1 10 0,0
17.02.2018 06:00:00 -7,3 -8,4 2 1 4 2 SE 1024,0 10 0,0
17.02.2018 05:00:00 -7,3 -8,4 0 0 7 4 N 1023,9 10 0,0
17.02.2018 04:00:00 -7,7 -8,9 9 5 11 6 SSE 1023,5 10 0,0
17.02.2018 03:00:00 -6,7 -8,1 5 3 11 6 SSE 1023,5 10 0,0
17.02.2018 02:00:00 -6,4 -7,9 9 5 11 6 S 1023,2 10 0,0
17.02.2018 01:00:00 -6,4 -8,1 5 3 11 6 S 1023,2 10 0,0
17.02.2018 00:00:00 -6,2 -7,7 5 3 7 4 S 1023,2 10 0,0
16.02.2018 23:00:00 -5,9 -7,4 5 3 11 6 S 1023,1 10 0,0
16.02.2018 22:00:00 -5,9 -7,3 9 5 14 8 SSE 1023,1 10 0,0
16.02.2018 21:00:00 -6,2 -7,9 5 3 7 4 SE 1022,9 10 0,0
16.02.2018 20:00:00 -5,6 -7,4 9 5 14 8 SSE 1022,7 10 0,0
16.02.2018 19:00:00 -5,0 -6,8 11 6 18 10 SSE 1022,8 10 0,0
16.02.2018 18:00:00 -4,8 -6,3 15 8 22 12 SSE 1022,3 10 0,0
16.02.2018 17:00:00 -4,4 -5,8 15 8 22 12 SSE 1022,0 10 0,0
16.02.2018 16:00:00 -4,3 -5,8 16 9 22 12 SSE 1021,9 10 0,0
16.02.2018 15:00:00 -4,1 -5,5 13 7 22 12 S 1021,9 10 0,0
16.02.2018 14:00:00 -3,4 -4,7 13 7 22 12 S 1021,7 10 0,0
16.02.2018 13:00:00 -2,8 -4,1 11 6 22 12 S 1021,7 10 0,0
16.02.2018 12:00:00 -2,6 -3,9 13 7 22 12 S 1021,5 10 0,0
16.02.2018 11:00:00 -2,6 -3,9 15 8 29 16 S 1021,5 10 0,0
16.02.2018 10:00:00 -2,6 -3,7 18 10 29 16 S 1021,2 10 0,0
16.02.2018 09:00:00 -2,5 -3,3 18 10 29 16 S 1021,0 10 0,0
16.02.2018 08:00:00 -2,4 -3,4 21 11 29 16 S 1021,0 10 0,0
16.02.2018 07:00:00 -2,1 -3,4 21 11 32 18 S 1020,8 10 0,0
16.02.2018 06:00:00 -1,8 -3,1 16 9 29 16 S 1020,8 10 0,0
16.02.2018 05:00:00 -1,8 -2,9 15 8 29 16 S 1020,9 10 0,0
16.02.2018 04:00:00 -2,1 -2,8 18 10 25 14 S 1021,0 10 0,0
16.02.2018 03:00:00 -3,8 -4,3 13 7 18 10 S 1020,9 10 0,0
16.02.2018 02:00:00 -7,9 -8,7 5 3 14 8 S 1021,3 10 0,0
16.02.2018 01:00:00 -10,6 -11,5 5 3 7 4 SSE 1021,4 0,1 0,0
16.02.2018 00:00:00 -7,1 -7,6 8 4 11 6 S 1021,2 10 0,0
15.02.2018 23:00:00 -5,7 -6,9 8 4 14 8 S 1021,1 10 0,0
15.02.2018 22:00:00 -4,3 -6,1 8 4 14 8 SSW 1020,9 10 0,0
15.02.2018 21:00:00 -5,3 -6,7 8 4 14 8 S 1020,8 10 0,0
15.02.2018 20:00:00 -5,9 -7,1 9 5 22 12 S 1020,5 10 0,0
15.02.2018 19:00:00 -5,1 -6,3 16 9 25 14 S 1020,3 10 0,0
15.02.2018 18:00:00 -4,7 -5,9 18 10 25 14 S 1020,3 10 0,0
15.02.2018 17:00:00 -4,8 -6,0 15 8 25 14 S 1020,3 10 0,0
15.02.2018 16:00:00 -3,8 -5,8 11 6 18 10 S 1020,3 10 0,0
15.02.2018 15:00:00 -3,0 -5,3 11 6 18 10 S 1020,3 10 0,0
15.02.2018 14:00:00 -1,2 -4,4 13 7 29 16 S 1020,2 10 0,0
15.02.2018 13:00:00 -1,2 -4,7 11 6 32 18 SW 1020,3 10 0,0
15.02.2018 12:00:00 -1,1 -4,3 13 7 32 18 SSW 1020,3 10 0,0
15.02.2018 11:00:00 -1,2 -4,4 11 6 22 12 SSW 1020,3 10 0,0

tt = Température de l'air
td = dewpoint
ff = Vitesse du vent
fx = gusts
dd = Direction du vent
ppp = reduced air pressure
vv = visibility
rr = Quantités de précipitations

stations d'obs. à proximité